Regional Weather Roundup
Issued by NWS

Home | Current Version | Previous Version | Graphics & Text | Print | Product List | Glossary On
Versions: 1 2 3 4 5 6 7 8 9 10 11 12 13 14 15 16 17 18 19 20 21 22 23 24 25 26 27 28 29 30 31 32 33 34 35 36 37 38 39 40 41 42 43 44 45 46 47 48 49 50
000
ASUS43 KOAX 041102
RWRNE

WEATHER ROUNDUP FOR NEBRASKA
NATIONAL WEATHER SERVICE OMAHA NE
600 AM CDT FRI SEP 04 2015

NOTES: SATELLITE DATA IS BEING USED TO AUGMENT CLOUD COVER ABOVE
       12000 FEET.
       "FAIR" INDICATES FEW OR NO CLOUDS BELOW 12,000 FEET WITH NO
       SIGNIFICANT WEATHER AND/OR OBSTRUCTIONS TO VISIBILITY.

  * THESE STATIONS DO NOT REPORT WEATHER SUCH AS RAIN...SNOW OR FOG.

NEZ001>004-019>022-054>056-041200-
NEBRASKA PANHANDLE

CITY           SKY/WX    TMP DP  RH WIND       PRES   REMARKS
SCOTTSBLUFF    CLEAR     58  53  84 CALM      29.88R
ALLIANCE       CLEAR     56  52  86 W6        29.87R
CHADRON        PTCLDY    67  52  58 CALM      29.81R
KIMBALL        CLEAR     49  47  95 SW5       29.93S
SIDNEY         CLEAR     51  49  92 W7        29.91S
$$

NEZ057>060-069>072-079>082-041200-
SOUTHWEST NEBRASKA

CITY           SKY/WX    TMP DP  RH WIND       PRES   REMARKS
NORTH PLATTE   MOCLDY    64  61  90 CALM      29.78F
IMPERIAL       PTCLDY    65  61  87 NW6       29.82F
LEXINGTON      PTCLDY    73  62  69 SE14      29.78S
MCCOOK         PTCLDY    71  57  61 CALM      29.78R
$$

NEZ005>010-023>029-035>040-094-041200-
NORTH CENTRAL NEBRASKA

CITY           SKY/WX    TMP DP  RH WIND       PRES   REMARKS
VALENTINE      CLOUDY    65  63  93 S8        29.77R
AINSWORTH      CLOUDY    70  63  77 S10       29.81R
BROKEN BOW     MOCLDY    71  63  75 SE9       29.80R
ORD            PTCLDY    74  63  68 SE16G24   29.78F
$$

NEZ041-046>049-061>064-073>077-083>087-041200-
SOUTH CENTRAL NEBRASKA

CITY           SKY/WX    TMP DP  RH WIND       PRES   REMARKS
GRAND ISLAND   MOCLDY    73  65  75 SE9       29.84F
AURORA         CLOUDY    71  68  91 SE8       29.86R
HASTINGS       PTCLDY    74  63  68 S12       29.84R
HEBRON         TSTM      72  66  82 CALM      29.89R
HOLDREGE       CLEAR     71  60  68 S9        29.81S
KEARNEY *      CLEAR     70  59  68 SE9       29.82S
YORK           CLOUDY    72  68  88 W3        29.87R
$$

NEZ011>018-030>034-042>045-041200-
NORTHEAST NEBRASKA

CITY           SKY/WX    TMP DP  RH WIND       PRES   REMARKS
NORFOLK        CLOUDY    75  66  73 SE15      29.83R
ALBION         CLOUDY    72  64  75 SE6       29.81S
BLAIR          PTCLDY    73  66  79 S10       29.88R
COLUMBUS *     CLOUDY    73  63  68 SE7       29.89R
FREMONT        MOCLDY    75  67  74 SW7       29.90R
TEKAMAH        MOCLDY    72  69  90 S7        29.87R
WAYNE          CLOUDY    74  67  80 S5        29.86R
$$

NEZ050>053-065>068-078-088>093-041200-
SOUTHEAST NEBRASKA

CITY           SKY/WX    TMP DP  RH WIND       PRES   REMARKS
LINCOLN        MOCLDY    76  67  73 S10       29.88R
OMAHA EPPLEY   PTCLDY    75  68  78 S13       29.88R
BEATRICE       CLOUDY    75  66  75 S10       29.88S
FALLS CITY     PTCLDY    72  68  87 S7        29.90R
NEBRASKA CITY  MOCLDY    71  68  90 S8        29.89R
PLATTSMOUTH    MOCLDY    70  67  88 SE9       29.89R
$$

NEZ044-045-051>053-067-041200-
OMAHA AREA

CITY           SKY/WX    TMP DP  RH WIND       PRES   REMARKS
OMAHA EPPLEY   PTCLDY    75  68  78 S13       29.88R
BLAIR          PTCLDY    73  66  79 S10       29.88R
FREMONT        MOCLDY    75  67  74 SW7       29.90R
OFFUTT AFB     MOCLDY    72  68  88 SE8       29.88R
PLATTSMOUTH    MOCLDY    70  67  88 SE9       29.89R
WAHOO          FAIR      72  69  89 W3        29.89R
$$




USA.gov is the U.S. government's official web portal to all federal, state and local government web resources and services.